KE4JRS Weather Reports


Display with metric or nautical units.
time (UTC)temp
F
wind
direction
speed
MPH
gust
MPH
rain 1hr
in
rain 24hr
in
rain mn
in
humidity
%
barometer
mb
20260503024507 80 89 0.0 1.0 0.00 0.00 0.00 77 1014.2
20260503024004 80 110 0.0 1.0 0.00 0.00 0.00 77 1014.1
20260503023504 80 89 0.0 2.0 0.00 0.00 0.00 76 1014.1
20260503023008 80 88 0.0 4.0 0.00 0.00 0.00 75 1014.1
20260503022504 80 82 1.0 4.0 0.00 0.00 0.00 75 1014.2
20260503022005 81 89 0.0 3.0 0.00 0.00 0.00 75 1014.1
20260503021515 81 87 0.0 3.0 0.00 0.00 0.00 74 1014.0
20260503021008 81 98 0.0 1.0 0.00 0.00 0.00 74 1014.0
20260503020505 81 86 0.0 2.0 0.00 0.00 0.00 73 1013.9
20260503020020 81 87 0.0 4.0 0.00 0.00 0.00 72 1013.9
20260503015507 81 124 0.0 4.0 0.00 0.00 0.00 72 1013.9
20260503015007 81 80 0.0 5.0 0.00 0.00 0.00 72 1014.0
20260503014524 81 74 2.0 5.0 0.00 0.00 0.00 71 1014.0
20260503014008 82 91 1.0 4.0 0.00 0.00 0.00 71 1014.1
20260503013503 82 65 1.0 4.0 0.00 0.00 0.00 70 1013.9
20260503013005 82 72 1.0 4.0 0.00 0.00 0.00 70 1014.0
20260503012503 82 71 2.0 4.0 0.00 0.00 0.00 69 1013.9
20260503012003 82 90 0.0 5.0 0.00 0.00 0.00 68 1013.9
20260503011508 82 91 0.0 5.0 0.00 0.00 0.00 68 1013.7
20260503011005 82 68 1.0 5.0 0.00 0.00 0.00 67 1013.7
20260503010506 83 94 0.0 3.0 0.00 0.00 0.00 66 1013.5
20260503010016 83 95 0.0 4.0 0.00 0.00 0.00 66 1013.5
20260503005511 83 81 1.0 4.0 0.00 0.00 0.00 65 1013.4
20260503005007 83 86 1.0 6.0 0.00 0.00 0.00 64 1013.3
20260503004522 83 95 0.0 6.0 0.00 0.00 0.00 63 1013.2
20260503004009 83 91 0.0 4.0 0.00 0.00 0.00 62 1013.2
20260503003507 83 79 1.0 4.0 0.00 0.00 0.00 61 1013.2
20260503003025 84 107 0.0 5.0 0.00 0.00 0.00 60 1013.0
20260503002508 84 79 2.0 5.0 0.00 0.00 0.00 60 1012.9
20260503002003 84 97 1.0 5.0 0.00 0.00 0.00 59 1012.8
20260503001509 84 97 2.0 6.0 0.00 0.00 0.00 58 1012.8
20260503001002 85 84 1.0 7.0 0.00 0.00 0.00 57 1012.7
20260503000506 85 75 2.0 7.0 0.00 0.00 0.00 56 1012.6
20260503000012 85 104 2.0 7.0 0.00 0.00 0.00 54 1012.4
20260502235504 86 98 1.0 5.0 0.00 0.00 0.00 54 1012.3
20260502235006 86 96 3.0 5.0 0.00 0.00 0.00 55 1012.2
20260502234515 86 94 2.0 5.0 0.00 0.00 0.00 57 1012.1
20260502234007 86 75 1.0 4.0 0.00 0.00 0.00 57 1012.0
20260502233507 86 79 1.0 3.0 0.00 0.00 0.00 56 1011.9
20260502233023 86 68 1.0 3.0 0.00 0.00 0.00 56 1011.8
20260502232507 86 28 1.0 4.0 0.00 0.00 0.00 55 1011.8
20260502232014 87 82 1.0 4.0 0.00 0.00 0.00 54 1011.7
20260502231525 87 23 2.0 5.0 0.00 0.00 0.00 54 1011.7
20260502231010 87 48 2.0 5.0 0.00 0.00 0.00 52 1011.6
20260502230503 88 35 2.0 6.0 0.00 0.00 0.00 51 1011.3
20260502230009 88 58 3.0 6.0 0.00 0.00 0.00 51 1011.3
20260502225506 88 13 3.0 5.0 0.00 0.00 0.00 50 1011.2
20260502225002 89 77 2.0 6.0 0.00 0.00 0.00 50 1011.2
20260502224512 89 61 2.0 6.0 0.00 0.00 0.00 50 1011.1
20260502224004 90 77 2.0 5.0 0.00 0.00 0.00 50 1011.1
20260502223511 90 63 1.0 4.0 0.00 0.00 0.00 51 1011.0
20260502223020 90 58 1.0 6.0 0.00 0.00 0.00 50 1011.1
20260502222507 90 60 3.0 7.0 0.00 0.00 0.00 48 1011.2
20260502222011 90 56 2.0 7.0 0.00 0.00 0.00 51 1011.1
20260502221522 90 84 2.0 7.0 0.00 0.00 0.00 51 1011.1
20260502221006 90 73 2.0 8.0 0.00 0.00 0.00 51 1011.1
20260502220512 90 56 4.0 8.0 0.00 0.00 0.00 50 1011.1
20260502220026 91 353 2.0 6.0 0.00 0.00 0.00 50 1010.9
20260502215510 91 68 2.0 6.0 0.00 0.00 0.00 50 1010.9
20260502215003 91 74 2.0 6.0 0.00 0.00 0.00 51 1010.9
20260502214510 92 96 3.0 6.0 0.00 0.00 0.00 50 1010.9
20260502214002 92 62 3.0 5.0 0.00 0.00 0.00 49 1010.9
20260502213507 92 72 2.0 10.0 0.00 0.00 0.00 49 1010.8
20260502213014 92 51 3.0 10.0 0.00 0.00 0.00 49 1010.6
20260502212510 92 82 2.0 7.0 0.00 0.00 0.00 49 1010.6
20260502212008 93 38 3.0 6.0 0.00 0.00 0.00 47 1010.6
20260502211528 93 27 2.0 6.0 0.00 0.00 0.00 47 1010.6
20260502211006 92 321 1.0 7.0 0.00 0.00 0.00 47 1010.4
20260502210507 92 87 3.0 7.0 0.00 0.00 0.00 46 1010.6
20260502210022 93 75 3.0 8.0 0.00 0.00 0.00 45 1010.4
20260502205508 93 60 3.0 8.0 0.00 0.00 0.00 43 1010.4
20260502205010 93 68 3.0 7.0 0.00 0.00 0.00 42 1010.3
20260502204524 93 58 3.0 7.0 0.00 0.00 0.00 42 1010.3
20260502204004 93 56 4.0 7.0 0.00 0.00 0.00 42 1010.3
20260502203504 93 31 2.0 6.0 0.00 0.00 0.00 43 1010.4
20260502203009 93 66 3.0 6.0 0.00 0.00 0.00 40 1010.5
20260502202506 93 58 3.0 6.0 0.00 0.00 0.00 41 1010.4
20260502202007 93 41 3.0 6.0 0.00 0.00 0.00 41 1010.5
20260502201518 93 55 2.0 6.0 0.00 0.00 0.00 41 1010.6
20260502201006 93 83 4.0 7.0 0.00 0.00 0.00 42 1010.9
20260502200507 92 16 3.0 7.0 0.00 0.00 0.00 42 1011.0
20260502200020 92 47 5.0 8.0 0.00 0.00 0.00 42 1011.0
20260502195509 93 95 4.0 8.0 0.00 0.00 0.00 42 1011.1
20260502195006 93 91 1.0 6.0 0.00 0.00 0.00 44 1011.1
20260502194523 92 92 3.0 9.0 0.00 0.00 0.00 42 1011.2
20260502194012 92 41 5.0 9.0 0.00 0.00 0.00 43 1011.2
20260502193510 92 72 3.0 8.0 0.00 0.00 0.00 45 1011.2
20260502193026 92 68 2.0 9.0 0.00 0.00 0.00 45 1011.3
20260502192504 92 25 5.0 11.0 0.00 0.00 0.00 46 1011.4
20260502192003 91 58 1.0 11.0 0.00 0.00 0.00 48 1011.3
20260502191520 92 68 4.0 11.0 0.00 0.00 0.00 48 1011.4
20260502191006 91 55 3.0 7.0 0.00 0.00 0.00 46 1011.4
20260502190508 92 81 4.0 9.0 0.00 0.00 0.00 48 1011.5
20260502190028 91 55 3.0 10.0 0.00 0.00 0.00 47 1011.4
20260502185507 91 72 4.0 10.0 0.00 0.00 0.00 49 1011.5
20260502185008 91 20 4.0 8.0 0.00 0.00 0.00 51 1011.5
20260502184523 91 75 2.0 7.0 0.00 0.00 0.00 50 1011.5
20260502184006 91 61 2.0 7.0 0.00 0.00 0.00 50 1011.4
20260502183509 91 24 2.0 6.0 0.00 0.00 0.00 51 1011.5
20260502183026 91 37 3.0 6.0 0.00 0.00 0.00 50 1011.5
20260502182512 92 21 1.0 8.0 0.00 0.00 0.00 50 1011.6
20260502182011 91 79 3.0 8.0 0.00 0.00 0.00 53 1011.7
20260502181528 91 337 3.0 9.0 0.00 0.00 0.00 53 1011.7
20260502181005 91 81 2.0 10.0 0.00 0.00 0.00 53 1011.6
20260502180508 90 41 2.0 10.0 0.00 0.00 0.00 55 1011.7
20260502170510 90 52 4.0 7.0 0.00 0.00 0.00 59 1011.9
20260502164013 90 23 3.0 8.0 0.00 0.00 0.00 59 1012.2
20260502163511 90 58 3.0 8.0 0.00 0.00 0.00 61 1012.2
20260502163022 90 89 3.0 6.0 0.00 0.00 0.00 62 1012.2
20260502162506 89 23 3.0 8.0 0.00 0.00 0.00 62 1012.2
20260502162014 89 81 3.0 8.0 0.00 0.00 0.00 63 1012.4
20260502161524 88 72 2.0 7.0 0.00 0.00 0.00 65 1012.5
20260502161011 88 66 2.0 5.0 0.00 0.00 0.00 64 1012.5
20260502160510 89 77 2.0 5.0 0.00 0.00 0.00 62 1012.5
20260502152010 86 315 1.0 6.0 0.00 0.00 0.00 70 1012.7
20260502151522 85 8 3.0 6.0 0.00 0.00 0.00 71 1012.9
20260502151010 85 62 1.0 7.0 0.00 0.00 0.00 72 1012.8
20260502150509 85 58 3.0 7.0 0.00 0.00 0.00 71 1012.7
20260502130507 82 347 1.0 5.0 0.00 0.00 0.00 79 1012.4
20260502123512 81 63 0.0 2.0 0.00 0.00 0.00 84 1012.5
20260502123010 80 60 0.0 2.0 0.00 0.00 0.00 85 1012.4
20260502122506 80 63 0.0 2.0 0.00 0.00 0.00 85 1012.5
20260502122007 80 1 0.0 2.0 0.00 0.00 0.00 86 1012.3
20260502121521 79 96 0.0 1.0 0.00 0.00 0.00 87 1012.3
20260502121006 79 103 0.0 1.0 0.00 0.00 0.00 88 1012.2
20260502120506 78 49 0.0 1.0 0.00 0.00 0.00 88 1012.1
20260502115507 77 108 0.0 1.0 0.00 0.00 0.00 89 1012.2
20260502115010 77 108 0.0 1.0 0.00 0.00 0.00 89 1012.1
20260502114530 77 70 0.0 1.0 0.00 0.00 0.00 89 1012.1
20260502114007 77 70 0.0 1.0 0.00 0.00 0.00 90 1012.1
20260502113508 77 70 0.0 1.0 0.00 0.00 0.00 90 1012.1
20260502113027 76 70 0.0 1.0 0.00 0.00 0.00 90 1012.0
20260502112510 76 69 0.0 1.0 0.00 0.00 0.00 90 1012.0
20260502112011 76 69 0.0 1.0 0.00 0.00 0.00 91 1012.0
20260502111514 76 69 0.0 1.0 0.00 0.00 0.00 91 1012.0
20260502111006 76 69 0.0 1.0 0.00 0.00 0.00 91 1012.1
20260502110507 76 87 0.0 1.0 0.00 0.00 0.00 91 1012.1
20260502110021 76 87 0.0 1.0 0.00 0.00 0.00 91 1012.1
20260502105509 76 87 0.0 1.0 0.00 0.00 0.00 91 1012.0
20260502105008 76 87 0.0 1.0 0.00 0.00 0.00 91 1011.9
20260502104537 76 87 0.0 1.0 0.00 0.00 0.00 92 1011.9
20260502104007 76 87 0.0 0.0 0.00 0.00 0.00 92 1011.8
20260502103507 76 87 0.0 0.0 0.00 0.00 0.00 92 1012.0
20260502103026 75 87 0.0 0.0 0.00 0.00 0.00 92 1012.1
20260502102510 75 87 0.0 0.0 0.00 0.00 0.00 92 1012.0
20260502102010 75 87 0.0 0.0 0.00 0.00 0.00 92 1012.1
20260502101525 75 87 0.0 0.0 0.00 0.00 0.00 92 1012.0
20260502101009 75 87 0.0 0.0 0.00 0.00 0.00 91 1012.0
20260502100509 76 87 0.0 0.0 0.00 0.00 0.00 91 1012.0
20260502091010 76 86 0.0 1.0 0.00 0.00 0.00 92 1011.9
20260502090509 76 87 0.0 1.0 0.00 0.00 0.00 92 1011.8
20260502071524 74 87 0.0 0.0 0.00 0.00 0.00 93 1011.9
20260502071011 74 87 0.0 0.0 0.00 0.00 0.00 92 1011.9
20260502070509 74 87 0.0 0.0 0.00 0.00 0.00 92 1011.9
20260502070026 74 87 0.0 0.0 0.00 0.00 0.00 92 1011.9
20260502065511 74 87 0.0 0.0 0.00 0.00 0.00 92 1011.9
20260502065012 74 87 0.0 0.0 0.00 0.00 0.00 92 1011.9
20260502064524 74 87 0.0 0.0 0.00 0.00 0.00 92 1011.9
20260502064003 74 87 0.0 0.0 0.00 0.00 0.00 92 1012.0
20260502063504 74 87 0.0 0.0 0.00 0.00 0.00 92 1012.0
20260502063010 73 87 0.0 0.0 0.00 0.00 0.00 93 1012.1
20260502062504 73 87 0.0 0.0 0.00 0.00 0.00 92 1012.1
20260502062006 73 87 0.0 0.0 0.00 0.00 0.00 92 1012.1
20260502061509 73 87 0.0 0.0 0.00 0.00 0.00 92 1012.1
20260502061004 73 87 0.0 0.0 0.00 0.00 0.00 93 1012.1
20260502060503 73 87 0.0 0.0 0.00 0.00 0.00 92 1012.1
20260502060009 73 87 0.0 0.0 0.00 0.00 0.00 92 1012.1
20260502055503 73 87 0.0 0.0 0.00 0.00 0.00 92 1012.1
20260502055003 73 87 0.0 0.0 0.00 0.00 0.00 92 1012.1
20260502054510 73 87 0.0 0.0 0.00 0.00 0.00 92 1012.0
20260502054009 73 87 0.0 0.0 0.00 0.00 0.00 91 1012.1
20260502053501 73 87 0.0 0.0 0.00 0.00 0.00 91 1012.1
20260502053010 73 87 0.0 0.0 0.00 0.00 0.00 91 1012.2
20260502052504 73 87 0.0 0.0 0.00 0.00 0.00 91 1012.3
20260502052004 74 87 0.0 0.0 0.00 0.00 0.00 91 1012.3
20260502051507 74 87 0.0 0.0 0.00 0.00 0.00 91 1012.3
20260502051002 74 87 0.0 0.0 0.00 0.00 0.00 91 1012.4
20260502050503 74 87 0.0 0.0 0.00 0.00 0.00 91 1012.4
20260502050011 74 87 0.0 0.0 0.00 0.00 0.00 90 1012.6
20260502045504 74 87 0.0 0.0 0.00 0.00 0.00 91 1012.8
20260502045003 74 87 0.0 0.0 0.00 0.00 0.00 90 1012.8
20260502044506 74 87 0.0 0.0 0.00 0.00 0.00 90 1012.9
20260502044005 74 87 0.0 0.0 0.00 0.00 0.00 90 1012.9
20260502043503 74 87 0.0 0.0 0.00 0.00 0.00 90 1012.9
20260502043011 74 87 0.0 0.0 0.00 0.00 0.00 90 1012.9
20260502042504 74 87 0.0 0.0 0.00 0.00 0.00 89 1013.0
20260502042004 74 87 0.0 0.0 0.00 0.00 0.00 89 1013.0
20260502041514 74 87 0.0 0.0 0.00 0.00 0.00 89 1013.0
20260502041005 75 87 0.0 0.0 0.00 0.00 0.00 89 1012.9
20260502040504 75 87 0.0 0.0 0.00 0.00 0.00 89 1013.0
20260502040013 75 87 0.0 0.0 0.00 0.00 0.00 89 1013.0
20260502035507 75 87 0.0 0.0 0.00 0.00 0.00 88 1013.0
20260502035004 75 87 0.0 0.0 0.00 0.00 0.00 88 1013.0
20260502034511 75 87 0.0 0.0 0.00 0.00 0.00 87 1013.0
20260502034004 75 87 0.0 0.0 0.00 0.00 0.00 88 1013.0
20260502033503 75 87 0.0 0.0 0.00 0.00 0.00 87 1012.9
20260502033007 75 87 0.0 0.0 0.00 0.00 0.00 87 1012.9
20260502032505 75 87 0.0 0.0 0.00 0.00 0.00 87 1012.9
20260502032003 76 87 0.0 0.0 0.00 0.00 0.00 87 1012.9
20260502031512 76 87 0.0 0.0 0.00 0.00 0.00 87 1012.8
20260502031003 76 87 0.0 0.0 0.00 0.00 0.00 86 1012.8
20260502030505 76 87 0.0 0.0 0.00 0.00 0.00 86 1012.9
20260502030015 76 87 0.0 0.0 0.00 0.00 0.00 85 1012.9
20260502025503 76 87 0.0 1.0 0.00 0.00 0.00 84 1012.8
20260502025002 77 87 0.0 1.0 0.00 0.00 0.00 84 1012.8